TimeCDT,TemperatureF,Dew PointF,Humidity,Sea Level PressureIn,VisibilityMPH,Wind Direction,Wind SpeedMPH,Gust SpeedMPH,PrecipitationIn,Events,Conditions,WindDirDegrees,DateUTC
12:14 AM,35.6,26.6,70,30.19,10.0,West,13.8,19.6,N/A,,Overcast,270,2012-10-26 05:14:00
12:34 AM,35.6,26.6,70,30.20,10.0,West,15.0,24.2,N/A,,Overcast,280,2012-10-26 05:34:00
1:14 AM,35.6,26.6,70,30.20,10.0,West,15.0,-,N/A,,Scattered Clouds,270,2012-10-26 06:14:00
1:34 AM,35.6,26.6,70,30.20,10.0,West,12.7,-,N/A,,Clear,260,2012-10-26 06:34:00
1:54 AM,35.6,28.4,75,30.21,10.0,West,10.4,-,N/A,,Mostly Cloudy,270,2012-10-26 06:54:00
2:14 AM,33.8,26.6,75,30.21,10.0,West,11.5,-,N/A,,Scattered Clouds,270,2012-10-26 07:14:00
2:34 AM,33.8,28.4,81,30.22,10.0,West,9.2,-,N/A,,Clear,270,2012-10-26 07:34:00
2:54 AM,33.8,26.6,75,30.22,10.0,West,9.2,16.1,N/A,,Clear,270,2012-10-26 07:54:00
3:14 AM,33.8,26.6,75,30.22,10.0,West,12.7,16.1,N/A,,Clear,270,2012-10-26 08:14:00
3:33 AM,33.8,26.6,75,30.22,10.0,West,12.7,-,N/A,,Clear,270,2012-10-26 08:33:00
3:54 AM,33.8,26.6,75,30.22,10.0,West,10.4,-,N/A,,Clear,270,2012-10-26 08:54:00
4:14 AM,33.8,26.6,75,30.23,10.0,West,9.2,-,N/A,,Clear,270,2012-10-26 09:14:00
4:34 AM,32.0,26.6,80,30.23,10.0,West,11.5,-,N/A,,Clear,270,2012-10-26 09:34:00
4:54 AM,32.0,26.6,80,30.24,10.0,West,9.2,-,N/A,,Clear,270,2012-10-26 09:54:00
5:14 AM,32.0,26.6,80,30.24,10.0,West,9.2,-,N/A,,Clear,270,2012-10-26 10:14:00
5:34 AM,32.0,26.6,80,30.25,10.0,West,9.2,-,N/A,,Clear,270,2012-10-26 10:34:00
5:54 AM,32.0,26.6,80,30.26,10.0,West,10.4,-,N/A,,Clear,270,2012-10-26 10:54:00
6:14 AM,32.0,26.6,80,30.27,10.0,West,9.2,-,N/A,,Clear,270,2012-10-26 11:14:00
6:34 AM,32.0,26.6,80,30.29,10.0,West,10.4,-,N/A,,Clear,270,2012-10-26 11:34:00
6:54 AM,30.2,26.6,86,30.30,10.0,West,10.4,-,N/A,,Clear,260,2012-10-26 11:54:00
7:14 AM,30.2,26.6,86,30.31,10.0,West,9.2,-,N/A,,Clear,270,2012-10-26 12:14:00
7:54 AM,30.2,26.6,86,30.32,10.0,West,10.4,17.3,N/A,,Clear,270,2012-10-26 12:54:00
8:34 AM,33.8,26.6,75,30.34,10.0,West,10.4,-,N/A,,Mostly Cloudy,270,2012-10-26 13:34:00
8:53 AM,33.8,26.6,75,30.35,10.0,West,9.2,-,N/A,,Overcast,270,2012-10-26 13:53:00
9:14 AM,33.8,26.6,75,30.35,10.0,West,9.2,-,N/A,,Overcast,280,2012-10-26 14:14:00
9:34 AM,35.6,26.6,70,30.36,10.0,West,10.4,16.1,N/A,,Overcast,270,2012-10-26 14:34:00
10:14 AM,35.6,26.6,70,30.38,10.0,West,11.5,-,N/A,,Overcast,270,2012-10-26 15:14:00
10:34 AM,35.6,26.6,70,30.38,10.0,West,12.7,17.3,N/A,,Overcast,280,2012-10-26 15:34:00
10:54 AM,35.6,24.8,65,30.38,10.0,WNW,16.1,20.7,N/A,,Overcast,290,2012-10-26 15:54:00
11:14 AM,35.6,26.6,70,30.38,10.0,West,11.5,23.0,N/A,,Overcast,280,2012-10-26 16:14:00
11:34 AM,37.4,24.8,60,30.38,10.0,West,18.4,24.2,N/A,,Overcast,270,2012-10-26 16:34:00
11:54 AM,37.4,24.8,60,30.38,10.0,WNW,13.8,23.0,N/A,,Overcast,290,2012-10-26 16:54:00
12:14 PM,37.4,26.6,65,30.38,10.0,West,15.0,18.4,N/A,,Overcast,270,2012-10-26 17:14:00
12:34 PM,37.4,24.8,60,30.37,10.0,West,16.1,21.9,N/A,,Overcast,280,2012-10-26 17:34:00
12:54 PM,37.4,24.8,60,30.36,10.0,West,17.3,20.7,N/A,,Mostly Cloudy,280,2012-10-26 17:54:00
1:14 PM,37.4,24.8,60,30.36,10.0,WNW,15.0,23.0,N/A,,Overcast,290,2012-10-26 18:14:00
1:34 PM,37.4,24.8,60,30.36,10.0,West,17.3,-,N/A,,Overcast,270,2012-10-26 18:34:00
1:54 PM,37.4,24.8,60,30.36,10.0,West,16.1,23.0,N/A,,Overcast,270,2012-10-26 18:54:00
2:13 PM,37.4,24.8,60,30.36,10.0,West,12.7,17.3,N/A,,Overcast,280,2012-10-26 19:13:00
2:34 PM,37.4,24.8,60,30.36,10.0,West,17.3,-,N/A,,Overcast,280,2012-10-26 19:34:00
2:54 PM,37.4,24.8,60,30.36,10.0,West,13.8,19.6,N/A,,Overcast,280,2012-10-26 19:54:00
3:14 PM,37.4,24.8,60,30.35,10.0,West,9.2,19.6,N/A,,Overcast,260,2012-10-26 20:14:00
3:34 PM,39.2,26.6,61,30.35,10.0,West,10.4,-,N/A,,Scattered Clouds,270,2012-10-26 20:34:00
3:54 PM,39.2,24.8,56,30.35,10.0,WSW,11.5,-,N/A,,Mostly Cloudy,250,2012-10-26 20:54:00
4:14 PM,37.4,26.6,65,30.35,10.0,West,9.2,-,N/A,,Overcast,270,2012-10-26 21:14:00
4:34 PM,37.4,26.6,65,30.35,10.0,West,10.4,-,N/A,,Overcast,260,2012-10-26 21:34:00
4:54 PM,37.4,26.6,65,30.35,10.0,WSW,9.2,-,N/A,,Overcast,250,2012-10-26 21:54:00
5:14 PM,37.4,26.6,65,30.34,10.0,WSW,9.2,-,N/A,,Overcast,250,2012-10-26 22:14:00
5:34 PM,37.4,26.6,65,30.34,10.0,WSW,10.4,-,N/A,,Overcast,250,2012-10-26 22:34:00
5:54 PM,37.4,26.6,65,30.35,10.0,WSW,6.9,-,N/A,,Overcast,240,2012-10-26 22:54:00
6:14 PM,37.4,26.6,65,30.35,10.0,WSW,8.1,-,N/A,,Overcast,240,2012-10-26 23:14:00
6:34 PM,37.4,26.6,65,30.35,10.0,West,11.5,-,N/A,,Overcast,260,2012-10-26 23:34:00
6:54 PM,37.4,28.4,70,30.35,10.0,West,5.8,-,N/A,,Overcast,270,2012-10-26 23:54:00
7:14 PM,35.6,26.6,70,30.35,10.0,West,6.9,-,N/A,,Overcast,270,2012-10-27 00:14:00
7:34 PM,37.4,28.4,70,30.35,10.0,WSW,4.6,-,N/A,,Overcast,250,2012-10-27 00:34:00
7:54 PM,35.6,28.4,75,30.35,10.0,WSW,6.9,-,N/A,,Overcast,250,2012-10-27 00:54:00
8:14 PM,35.6,28.4,75,30.35,10.0,WSW,6.9,-,N/A,,Overcast,250,2012-10-27 01:14:00
8:34 PM,35.6,28.4,75,30.35,10.0,West,5.8,-,N/A,,Overcast,260,2012-10-27 01:34:00
9:14 PM,35.6,28.4,75,30.36,10.0,West,6.9,-,N/A,,Overcast,270,2012-10-27 02:14:00
9:34 PM,35.6,28.4,75,30.35,10.0,West,6.9,-,N/A,,Overcast,270,2012-10-27 02:34:00
9:54 PM,35.6,26.6,70,30.35,10.0,West,6.9,-,N/A,,Overcast,270,2012-10-27 02:54:00
10:14 PM,35.6,26.6,70,30.35,10.0,West,5.8,-,N/A,,Overcast,270,2012-10-27 03:14:00
10:34 PM,35.6,28.4,75,30.36,10.0,West,5.8,-,N/A,,Overcast,270,2012-10-27 03:34:00
11:13 PM,33.8,26.6,75,30.35,10.0,West,5.8,-,N/A,,Scattered Clouds,270,2012-10-27 04:13:00
11:34 PM,30.2,26.6,86,30.35,10.0,West,5.8,-,N/A,,Mostly Cloudy,260,2012-10-27 04:34:00
11:54 PM,33.8,28.4,81,30.35,10.0,West,4.6,-,N/A,,Scattered Clouds,260,2012-10-27 04:54:00